Weather History for Burlington, VT

Change the Weather History Date:

Saturday, March 10, 2012

  Actual Average Record
Temperature  
Mean Temperature 28 °F 28 °F  
Max Temperature 35 °F 37 °F 63 °F (2002)
Min Temperature 21 °F 19 °F -9 °F (1971)
Degree Days  
Heating Degree Days 37 37  
Month to date heating degree days 324 382  
Since 1 July heating degree days 4885 5792  
Cooling Degree Days 0 0  
Month to date cooling degree days 0 0  
Year to date cooling degree days 0 0  
Moisture  
Dew Point 21 °F    
Average Humidity 70    
Maximum Humidity 92    
Minimum Humidity 47    
Precipitation  
Precipitation 0.07 in 0.07 in 1.20 in (1998)
Month to date precipitation 0.45 0.68  
Year to date precipitation 3.30 4.50  
Snow  
Snow 1.70 in 0.60 in 12.10 in (1964)
Month to date snowfall 5.9 6.3  
Since 1 July snowfall 37.7 67.1  
Snow Depth 0.00 in    
Sea Level Pressure  
Sea Level Pressure 30.33 in    
Wind  
Wind Speed 6 mph (NW)    
Max Wind Speed 15 mph    
Max Gust Speed 20 mph    
Visibility 6 miles    
Events Snow    
T = Trace of Precipitation, MM = Missing Value Source: NWS Daily Summary

Daily Weather History Graph

Daily Weather History Graph

Search for Another Location

Airport:

Trip Planner

Search our weather history database for the weather conditions in past years. The results will help you decide how hot, cold, wet, or windy it might be!

Date:

Astronomy

Mar. 10, 2012 Rise Set
Actual Time 6:13 AM EST 5:52 PM EST
Civil Twilight 5:44 AM EST 6:21 PM EST
Nautical Twilight 5:10 AM EST 6:55 PM EST
Astronomical Twilight 4:36 AM EST 7:29 PM EST
Moon 9:12 PM EST (3/10) 6:58 AM EST (3/10)
Length of Visible Light 12h 37m
Length of Day
11h 39m
Waning Gibbous, 93% of the Moon is Illuminated
Mar 10
Waning Gibbous
Mar 14
Last Quarter
Mar 22
New
Mar 30
First Quarter
Apr 6
Full

Hourly Weather History & Observations

Time (EST) Temp. Windchill Dew Point Humidity Pressure Visibility Wind Dir Wind Speed Gust Speed Precip Events Conditions
12:00 AM 26.6 °F 20.0 °F 24.8 °F 93% 30.15 in 1.5 mi NW 5.8 mph - 0.00 in Snow Light Snow
12:06 AM 26.6 °F 20.0 °F 24.8 °F 93% 30.16 in 2.0 mi NNW 5.8 mph - 0.00 in Snow Light Snow
12:20 AM 26.6 °F 20.0 °F 24.8 °F 93% 30.16 in 3.0 mi NW 5.8 mph - 0.00 in Snow Light Snow
12:49 AM 26.6 °F 22.6 °F 24.8 °F 93% 30.17 in 2.5 mi NW 3.5 mph - 0.00 in Snow Light Snow
12:54 AM 27.0 °F 21.6 °F 24.1 °F 89% 30.19 in 2.5 mi NW 4.6 mph - 0.00 in Snow Light Snow
1:00 AM 26.6 °F 20.0 °F 23.0 °F 86% 30.18 in 1.8 mi NW 5.8 mph - 0.01 in Snow Light Snow
1:09 AM 26.6 °F 16.2 °F 24.8 °F 93% 30.19 in 1.8 mi NW 11.5 mph - 0.01 in Snow Light Snow
1:16 AM 26.6 °F 17.5 °F 24.8 °F 93% 30.19 in 2.0 mi NW 9.2 mph - 0.01 in Snow Light Snow
1:24 AM 26.6 °F 18.2 °F 24.8 °F 93% 30.19 in 1.2 mi NW 8.1 mph - 0.01 in Snow Light Snow
1:54 AM 27.0 °F 20.5 °F 24.1 °F 89% 30.21 in 1.5 mi North 5.8 mph - 0.03 in Snow Light Snow
2:01 AM 26.6 °F 21.2 °F 24.8 °F 93% 30.20 in 2.0 mi NNW 4.6 mph - 0.00 in Snow Light Snow
2:25 AM 26.6 °F 22.6 °F 24.8 °F 93% 30.21 in 1.8 mi NNW 3.5 mph - 0.00 in Snow Light Snow
2:31 AM 26.6 °F 20.0 °F 24.8 °F 93% 30.21 in 1.2 mi NNW 5.8 mph - 0.00 in Snow Light Snow
2:45 AM 26.6 °F 22.6 °F 23.0 °F 86% 30.21 in 1.8 mi North 3.5 mph - 0.01 in Snow Light Snow
2:48 AM 26.6 °F 21.2 °F 24.8 °F 93% 30.22 in 2.0 mi NNW 4.6 mph - 0.01 in Snow Light Snow
2:54 AM 27.0 °F 21.6 °F 24.1 °F 89% 30.23 in 2.0 mi NNW 4.6 mph - 0.01 in Snow Light Snow
3:04 AM 26.6 °F 22.6 °F 24.8 °F 93% 30.23 in 1.5 mi North 3.5 mph - 0.00 in Snow Light Snow
3:16 AM 26.6 °F 22.6 °F 24.8 °F 93% 30.23 in 1.2 mi North 3.5 mph - 0.00 in Snow Light Snow
3:54 AM 26.1 °F 21.9 °F 24.1 °F 92% 30.27 in 2.0 mi North 3.5 mph - 0.02 in Snow Light Snow
4:05 AM 26.6 °F 21.2 °F 24.8 °F 93% 30.26 in 4.0 mi NW 4.6 mph - 0.00 in Snow Light Snow
4:15 AM 26.6 °F 19.1 °F 23.0 °F 86% 30.27 in 5.0 mi NW 6.9 mph - 0.00 in Snow Light Snow
4:27 AM 26.6 °F 20.0 °F 23.0 °F 86% 30.28 in 5.0 mi NW 5.8 mph - 0.00 in Snow Light Snow
4:54 AM 26.1 °F 20.5 °F 23.0 °F 88% 30.31 in 9.0 mi NNW 4.6 mph - 0.00 in Snow Light Snow
5:29 AM 26.6 °F 18.2 °F 21.2 °F 80% 30.32 in 8.0 mi NNW 8.1 mph - 0.00 in Snow Light Snow
5:54 AM 24.1 °F 14.4 °F 21.0 °F 88% 30.36 in 9.0 mi NW 9.2 mph - 0.00 in Snow Light Snow
6:01 AM 24.8 °F 13.4 °F 21.2 °F 86% 30.34 in 9.0 mi NW 12.7 mph - 0.00 in Snow Light Snow
6:23 AM 24.8 °F 14.0 °F 19.4 °F 80% 30.36 in 9.0 mi NW 11.5 mph - 0.00 in   Overcast
6:41 AM 21.2 °F 10.9 °F 17.6 °F 86% 30.38 in 9.0 mi NNW 9.2 mph - 0.00 in   Overcast
6:54 AM 21.9 °F 11.0 °F 17.1 °F 82% 30.41 in 9.0 mi NNW 10.4 mph - 0.01 in   Mostly Cloudy
7:05 AM 21.2 °F 10.9 °F 15.8 °F 80% 30.40 in 10.0 mi NNW 9.2 mph - N/A   Scattered Clouds
7:54 AM 21.9 °F 11.7 °F 14.0 °F 72% 30.46 in 10.0 mi NNW 9.2 mph - N/A   Partly Cloudy
8:54 AM 23.0 °F 11.1 °F 14.0 °F 68% 30.49 in 10.0 mi NW 12.7 mph - N/A   Scattered Clouds
9:54 AM 24.1 °F 11.5 °F 12.9 °F 62% 30.51 in 10.0 mi NW 15.0 mph - N/A   Scattered Clouds
10:54 AM 25.0 °F 14.2 °F 14.0 °F 63% 30.53 in 9.0 mi NNW 11.5 mph - 0.00 in Snow Light Snow
11:54 AM 27.0 °F 19.5 °F 12.9 °F 56% 30.54 in 10.0 mi NNE 6.9 mph - 0.00 in   Mostly Cloudy
12:54 PM 28.9 °F - 14.0 °F 54% 30.51 in 10.0 mi Calm Calm - N/A   Partly Cloudy
1:54 PM 32.0 °F 28.7 °F 16.0 °F 52% 30.50 in 10.0 mi Variable 3.5 mph - N/A   Scattered Clouds
2:54 PM 33.1 °F - 15.1 °F 48% 30.48 in 10.0 mi Calm Calm - N/A   Partly Cloudy
3:54 PM 34.0 °F 28.8 °F 16.0 °F 48% 30.46 in 10.0 mi WNW 5.8 mph - N/A   Partly Cloudy
4:54 PM 32.0 °F 28.7 °F 17.1 °F 54% 30.46 in 10.0 mi WSW 3.5 mph - N/A   Scattered Clouds
5:54 PM 30.0 °F - 17.1 °F 59% 30.46 in 10.0 mi Calm Calm - N/A   Clear
6:54 PM 28.9 °F - 18.0 °F 64% 30.46 in 10.0 mi Calm Calm - N/A   Clear
7:54 PM 28.9 °F - 19.0 °F 67% 30.45 in 10.0 mi Calm Calm - N/A   Mostly Cloudy
8:54 PM 27.0 °F - 19.0 °F 72% 30.44 in 10.0 mi Calm Calm - N/A   Clear
9:54 PM 30.0 °F 21.7 °F 19.0 °F 64% 30.42 in 10.0 mi South 9.2 mph - N/A   Overcast
10:54 PM 32.0 °F 24.2 °F 19.0 °F 59% 30.40 in 10.0 mi South 9.2 mph - N/A   Overcast
11:54 PM 32.0 °F 22.5 °F 17.1 °F 54% 30.39 in 10.0 mi South 12.7 mph 19.6 mph N/A   Overcast